Vero Beach, FL

10:18 AM EDT on July 20, 2017 (GMT -0400)
Vero Beach Municipal

Weather History for KVRB - January, 2014

Change the Weather History Date:

Monday, January 27, 2014

  Actual Average Record
Temperature  
Mean Temperature 73 °F 62 °F  
Max Temperature 84 °F 73 °F 84 °F (2014)
Min Temperature 61 °F 52 °F 32 °F (2000)
Degree Days  
Heating Degree Days 0 5  
Month to date heating degree days 166 135  
Since 1 July heating degree days 195 270  
Cooling Degree Days 8 2  
Month to date cooling degree days 61 54  
Year to date cooling degree days 61 54  
Growing Degree Days 22 (Base 50)    
Moisture  
Dew Point 61 °F    
Average Humidity 69    
Maximum Humidity 93    
Minimum Humidity 45    
Precipitation  
Precipitation 0.00 in 0.09 in 2.25 in (2016)
Month to date precipitation 3.13 2.19  
Year to date precipitation 3.13 2.19  
Sea Level Pressure  
Sea Level Pressure 30.00 in    
Wind  
Wind Speed 7 mph (SW)    
Max Wind Speed 18 mph    
Max Gust Speed 23 mph    
Visibility 10 miles    
Events      
T = Trace of Precipitation, MM = Missing Value Source: NWS Daily Summary

Daily Weather History Graph

Daily Weather History Graph

Search for Another Location

Airport or City:

Trip Planner

Search our weather history database for the weather conditions in past years. The results will help you decide how hot, cold, wet, or windy it might be!

Date:

Astronomy

Jan. 27, 2014 Rise Set
Actual Time 7:10 AM EST 5:58 PM EST
Civil Twilight 6:45 AM EST 6:23 PM EST
Nautical Twilight 6:17 AM EST 6:51 PM EST
Astronomical Twilight 5:49 AM EST 7:19 PM EST
Moon 3:46 AM EST (1/27) 2:46 PM EST (1/27)
Length of Visible Light 11h 37m
Length of Day
10h 48m
Waning Crescent, 15% of the Moon is Illuminated
Jan 27
Waning Crescent
Jan 30
New
Feb 6
First Quarter
Feb 14
Full
Feb 22
Last Quarter

Hourly Weather History & Observations

Time (EST) Temp. Heat Index Dew Point Humidity Pressure Visibility Wind Dir Wind Speed Gust Speed Precip Events Conditions
12:53 AM 66.0 °F - 59.0 °F 78% 30.00 in 10.0 mi South 5.8 mph - N/A   Mostly Cloudy
1:53 AM 66.0 °F - 60.1 °F 81% 30.00 in 10.0 mi South 6.9 mph - N/A   Mostly Cloudy
2:53 AM 64.0 °F - 59.0 °F 84% 29.99 in 10.0 mi WSW 5.8 mph - N/A   Clear
3:53 AM 62.1 °F - 59.0 °F 90% 29.99 in 10.0 mi SW 4.6 mph - N/A   Clear
4:53 AM 62.1 °F - 59.0 °F 90% 29.99 in 10.0 mi SSW 5.8 mph - N/A   Partly Cloudy
5:53 AM 64.0 °F - 59.0 °F 84% 29.99 in 10.0 mi South 5.8 mph - N/A   Overcast
6:53 AM 64.0 °F - 60.1 °F 87% 30.00 in 10.0 mi South 8.1 mph - N/A   Overcast
7:53 AM 64.0 °F - 60.1 °F 87% 30.01 in 10.0 mi SW 5.8 mph - N/A   Clear
8:53 AM 69.1 °F - 61.0 °F 75% 30.02 in 10.0 mi SW 6.9 mph - N/A   Clear
9:53 AM 73.9 °F - 62.1 °F 66% 30.04 in 10.0 mi SW 10.4 mph - N/A   Clear
10:53 AM 78.1 °F - 61.0 °F 56% 30.03 in 10.0 mi SW 13.8 mph 20.7 mph N/A   Clear
11:53 AM 80.1 °F 80.9 °F 60.1 °F 50% 30.01 in 10.0 mi SW 11.5 mph - N/A   Clear
12:53 PM 81.0 °F 81.1 °F 57.9 °F 45% 29.99 in 10.0 mi West 15.0 mph 23.0 mph N/A   Partly Cloudy
1:53 PM 82.0 °F 82.1 °F 59.0 °F 45% 29.95 in 10.0 mi West 9.2 mph - N/A   Mostly Cloudy
2:53 PM 81.0 °F 81.1 °F 57.9 °F 45% 29.94 in 10.0 mi West 12.7 mph - N/A   Mostly Cloudy
3:53 PM 73.9 °F - 64.9 °F 73% 29.94 in 10.0 mi NE 10.4 mph - N/A   Mostly Cloudy
4:53 PM 73.0 °F - 63.0 °F 71% 29.95 in 10.0 mi ENE 4.6 mph - N/A   Scattered Clouds
5:53 PM 71.1 °F - 64.0 °F 78% 29.96 in 10.0 mi ENE 4.6 mph - N/A   Mostly Cloudy
6:53 PM 69.1 °F - 64.9 °F 87% 29.98 in 10.0 mi Calm Calm - N/A   Overcast
7:53 PM 66.9 °F - 63.0 °F 87% 30.01 in 10.0 mi NW 4.6 mph - N/A   Overcast
8:53 PM 64.9 °F - 62.1 °F 90% 30.01 in 10.0 mi WSW 3.5 mph - N/A   Partly Cloudy
9:53 PM 63.0 °F - 61.0 °F 93% 30.03 in 10.0 mi West 5.8 mph - N/A   Clear
10:53 PM 63.0 °F - 60.1 °F 90% 30.03 in 10.0 mi West 3.5 mph - N/A   Clear
11:53 PM 62.1 °F - 61.0 °F 96% 30.03 in 10.0 mi Calm Calm - N/A   Clear